• In Netherlands
  • List of Countries
  • For 7 days
  • Water Temperature
  • Satellite Maps
  • Weather Map
  • Weather Widgets
  • user-avatar
    Login

    Hourly Weather Encamp

    Today, 21 January, Saturday

    Time Temperature Precipitation Wind Pressure Humidity
    00:00 -7°C° 0.2 mm 1 mps 622 mmHg 95%
    01:00 -8°C° 0.3 mm 2 mps 622 mmHg 94%
    02:00 -8°C° 0.3 mm 2 mps 622 mmHg 93%
    03:00 -8°C° 0.3 mm 2 mps 622 mmHg 92%
    04:00 -7°C° 0.2 mm 2 mps 622 mmHg 91%
    05:00 -7°C° 0.2 mm 2 mps 622 mmHg 91%
    06:00 -7°C° 0.2 mm 2 mps 622 mmHg 91%
    07:00 -6°C° 0.1 mm 2 mps 623 mmHg 88%
    08:00 -4°C° 0.1 mm 2 mps 623 mmHg 85%
    09:00 -3°C° 0.1 mm 2 mps 624 mmHg 82%
    10:00 -2°C° 0 mm 2 mps 624 mmHg 79%
    11:00 -1°C° 0 mm 2 mps 624 mmHg 75%
    12:00 +1°C° 0 mm 2 mps 625 mmHg 72%
    13:00 +1°C° 0 mm 2 mps 624 mmHg 74%
    14:00 -1°C° 0 mm 2 mps 624 mmHg 76%
    15:00 -1°C° 0 mm 2 mps 624 mmHg 78%
    16:00 -2°C° 0 mm 2 mps 623 mmHg 82%
    17:00 -4°C° 0 mm 2 mps 622 mmHg 86%
    18:00 -4°C° 0 mm 1 mps 622 mmHg 90%
    19:00 -6°C° 0 mm 2 mps 622 mmHg 88%
    20:00 -6°C° 0 mm 2 mps 622 mmHg 86%
    21:00 -6°C° 0 mm 2 mps 622 mmHg 84%
    22:00 -6°C° 0 mm 2 mps 622 mmHg 82%
    23:00 -6°C° 0 mm 2 mps 622 mmHg 80%

    Tomorrow, 22 January, Sunday

    Time Temperature Precipitation Wind Pressure Humidity
    00:00 -6°C° 0 mm 2 mps 622 mmHg 78%
    01:00 -6°C° 0 mm 2 mps 621 mmHg 77%
    02:00 -6°C° 0 mm 2 mps 621 mmHg 76%
    03:00 -6°C° 0 mm 2 mps 621 mmHg 75%
    04:00 -6°C° 0.1 mm 2 mps 621 mmHg 76%
    05:00 -6°C° 0.1 mm 2 mps 621 mmHg 77%
    06:00 -6°C° 0.1 mm 2 mps 621 mmHg 78%
    07:00 -5°C° 0.2 mm 2 mps 621 mmHg 77%
    08:00 -4°C° 0.2 mm 2 mps 622 mmHg 76%
    09:00 -4°C° 0.2 mm 2 mps 622 mmHg 76%
    10:00 -3°C° 0.2 mm 2 mps 623 mmHg 75%
    11:00 -2°C° 0.2 mm 2 mps 623 mmHg 74%
    12:00 -1°C° 0.2 mm 2 mps 623 mmHg 73%
    13:00 -1°C° 0.3 mm 2 mps 623 mmHg 74%
    14:00 -1°C° 0.3 mm 2 mps 623 mmHg 75%
    15:00 -1°C° 0.3 mm 2 mps 622 mmHg 77%
    16:00 -1°C° 0.4 mm 1 mps 622 mmHg 81%
    17:00 -2°C° 0.4 mm 1 mps 622 mmHg 85%
    18:00 -3°C° 0.4 mm 1 mps 621 mmHg 90%
    19:00 -3°C° 0.2 mm 1 mps 621 mmHg 90%
    20:00 -4°C° 0.2 mm 1 mps 621 mmHg 91%
    21:00 -6°C° 0.2 mm 2 mps 621 mmHg 91%
    22:00 -6°C° 0.2 mm 2 mps 621 mmHg 90%
    23:00 -6°C° 0.2 mm 2 mps 621 mmHg 90%

    Day after tomorrow, 23 January, Monday

    Time Temperature Precipitation Wind Pressure Humidity
    00:00 -6°C° 0.2 mm 2 mps 621 mmHg 89%
    01:00 -6°C° 0.2 mm 2 mps 621 mmHg 89%
    02:00 -6°C° 0.2 mm 2 mps 621 mmHg 88%
    03:00 -6°C° 0.2 mm 2 mps 621 mmHg 88%
    04:00 -6°C° 0.1 mm 2 mps 621 mmHg 88%
    05:00 -6°C° 0.1 mm 2 mps 621 mmHg 89%
    06:00 -7°C° 0.1 mm 2 mps 620 mmHg 90%
    07:00 -6°C° 0.3 mm 2 mps 621 mmHg 87%
    08:00 -5°C° 0.3 mm 2 mps 622 mmHg 85%
    09:00 -4°C° 0.3 mm 2 mps 622 mmHg 82%
    10:00 -3°C° 0.4 mm 2 mps 623 mmHg 81%
    11:00 -3°C° 0.4 mm 2 mps 623 mmHg 79%
    12:00 -2°C° 0.4 mm 2 mps 623 mmHg 78%
    13:00 -2°C° 0.3 mm 2 mps 623 mmHg 79%
    14:00 -2°C° 0.3 mm 2 mps 623 mmHg 81%
    15:00 -2°C° 0.3 mm 2 mps 623 mmHg 82%
    16:00 -3°C° 0.3 mm 2 mps 622 mmHg 85%
    17:00 -4°C° 0.3 mm 2 mps 622 mmHg 88%
    18:00 -5°C° 0.3 mm 2 mps 622 mmHg 91%
    19:00 -6°C° 0 mm 2 mps 622 mmHg 91%
    20:00 -6°C° 0 mm 2 mps 622 mmHg 91%
    21:00 -6°C° 0 mm 2 mps 622 mmHg 91%
    22:00 -7°C° 0 mm 2 mps 622 mmHg 90%
    23:00 -7°C° 0 mm 2 mps 621 mmHg 89%

    24 January, Tuesday

    Time Temperature Precipitation Wind Pressure Humidity
    00:00 -7°C° 0 mm 2 mps 621 mmHg 88%
    01:00 -9°C° 0 mm 3 mps 621 mmHg 86%
    02:00 -9°C° 0 mm 3 mps 621 mmHg 83%
    03:00 -9°C° 0 mm 3 mps 621 mmHg 81%
    04:00 -10°C° 0 mm 3 mps 621 mmHg 78%
    05:00 -10°C° 0 mm 3 mps 621 mmHg 76%
    06:00 -10°C° 0 mm 3 mps 620 mmHg 73%
    07:00 -9°C° 0 mm 3 mps 621 mmHg 70%
    08:00 -8°C° 0 mm 3 mps 622 mmHg 67%
    09:00 -7°C° 0 mm 3 mps 623 mmHg 64%
    10:00 -5°C° 0 mm 3 mps 623 mmHg 63%
    11:00 -4°C° 0 mm 3 mps 624 mmHg 62%
    12:00 -1°C° 0 mm 3 mps 624 mmHg 61%
    13:00 -1°C° 0 mm 3 mps 624 mmHg 62%
    14:00 -2°C° 0 mm 3 mps 624 mmHg 64%
    15:00 -2°C° 0 mm 3 mps 624 mmHg 65%
    16:00 -5°C° 0 mm 3 mps 623 mmHg 70%
    17:00 -7°C° 0 mm 2 mps 622 mmHg 74%
    18:00 -9°C° 0 mm 2 mps 622 mmHg 79%
    19:00 -9°C° 0 mm 2 mps 622 mmHg 75%
    20:00 -9°C° 0 mm 2 mps 622 mmHg 72%
    21:00 -9°C° 0 mm 2 mps 622 mmHg 68%
    22:00 -9°C° 0 mm 2 mps 622 mmHg 66%
    23:00 -10°C° 0 mm 2 mps 622 mmHg 63%

    25 January, Wednesday

    Time Temperature Precipitation Wind Pressure Humidity
    00:00 -10°C° 0 mm 2 mps 622 mmHg 61%
    01:00 -10°C° 0 mm 2 mps 622 mmHg 60%
    02:00 -10°C° 0 mm 1 mps 621 mmHg 59%
    03:00 -10°C° 0 mm 1 mps 621 mmHg 58%
    04:00 -11°C° 0 mm 1 mps 621 mmHg 58%
    05:00 -11°C° 0 mm 1 mps 621 mmHg 58%
    06:00 -11°C° 0 mm 1 mps 621 mmHg 58%
    07:00 -8°C° 0 mm 1 mps 623 mmHg 57%
    08:00 -4°C° 0 mm 1 mps 624 mmHg 56%
    09:00 -2°C° 0 mm 1 mps 626 mmHg 54%
    10:00 0°C° 0 mm 1 mps 626 mmHg 57%
    11:00 +1°C° 0 mm 1 mps 627 mmHg 60%
    12:00 +3°C° 0 mm 1 mps 627 mmHg 63%
    13:00 +3°C° 0 mm 1 mps 627 mmHg 64%
    14:00 +2°C° 0 mm 1 mps 626 mmHg 65%
    15:00 +2°C° 0 mm 1 mps 626 mmHg 67%
    16:00 -1°C° 0 mm 1 mps 625 mmHg 72%
    17:00 -6°C° 0 mm 1 mps 623 mmHg 77%
    18:00 -9°C° 0 mm 1 mps 622 mmHg 82%
    19:00 -9°C° 0 mm 1 mps 622 mmHg 78%
    20:00 -9°C° 0 mm 1 mps 623 mmHg 74%
    21:00 -9°C° 0 mm 1 mps 623 mmHg 71%
    22:00 -9°C° 0 mm 1 mps 623 mmHg 71%
    23:00 -9°C° 0 mm 1 mps 623 mmHg 71%

    26 January, Thursday

    Time Temperature Precipitation Wind Pressure Humidity
    00:00 -9°C° 0 mm 1 mps 623 mmHg 71%
    01:00 -9°C° 0 mm 1 mps 623 mmHg 72%
    02:00 -9°C° 0 mm 1 mps 623 mmHg 74%
    03:00 -9°C° 0 mm 1 mps 622 mmHg 76%
    04:00 -8°C° 0 mm 1 mps 622 mmHg 76%
    05:00 -8°C° 0 mm 1 mps 622 mmHg 76%
    06:00 -8°C° 0 mm 1 mps 622 mmHg 76%
    07:00 -7°C° 0 mm 2 mps 623 mmHg 72%
    08:00 -6°C° 0 mm 2 mps 624 mmHg 69%
    09:00 -4°C° 0 mm 2 mps 625 mmHg 66%
    10:00 -2°C° 0 mm 2 mps 626 mmHg 66%
    11:00 -1°C° 0 mm 2 mps 626 mmHg 66%
    12:00 +2°C° 0 mm 2 mps 626 mmHg 65%
    13:00 +1°C° 0 mm 2 mps 626 mmHg 67%
    14:00 +1°C° 0 mm 2 mps 626 mmHg 69%
    15:00 +1°C° 0 mm 2 mps 625 mmHg 71%
    16:00 -2°C° 0 mm 2 mps 624 mmHg 77%
    17:00 -5°C° 0 mm 2 mps 624 mmHg 82%
    18:00 -7°C° 0 mm 2 mps 623 mmHg 88%
    19:00 -7°C° 0 mm 2 mps 623 mmHg 89%
    20:00 -7°C° 0 mm 2 mps 623 mmHg 90%
    21:00 -7°C° 0 mm 2 mps 623 mmHg 90%
    22:00 -6°C° 0 mm 2 mps 624 mmHg 90%
    23:00 -5°C° 0 mm 2 mps 624 mmHg 89%
    Show more